EN

Hourly Weather Perkowo

Today, 16 January, Saturday

Time Temperature Precipitation Wind Pressure Humidity
00:00 -5°C° 0 mm 4 mps 761 mmHg 93%
01:00 -5°C° 0 mm 4 mps 761 mmHg 96%
02:00 -5°C° 0.1 mm 4 mps 761 mmHg 95%
03:00 -7°C° 0.1 mm 4 mps 761 mmHg 93%
04:00 -7°C° 0.1 mm 4 mps 761 mmHg 92%
05:00 -7°C° 0 mm 4 mps 761 mmHg 93%
06:00 -8°C° 0 mm 4 mps 761 mmHg 93%
07:00 -8°C° 0 mm 4 mps 761 mmHg 95%
08:00 -8°C° 0 mm 4 mps 761 mmHg 93%
09:00 -7°C° 0 mm 4 mps 760 mmHg 91%
10:00 -7°C° 0 mm 4 mps 760 mmHg 90%
11:00 -7°C° 0 mm 4 mps 760 mmHg 88%
12:00 -6°C° 0 mm 5 mps 759 mmHg 85%
13:00 -5°C° 0 mm 5 mps 759 mmHg 84%
14:00 -6°C° 0 mm 5 mps 758 mmHg 86%
15:00 -6°C° 0 mm 6 mps 758 mmHg 87%
16:00 -6°C° 0 mm 6 mps 757 mmHg 89%
17:00 -6°C° 0.1 mm 6 mps 757 mmHg 88%
18:00 -6°C° 0.1 mm 6 mps 757 mmHg 87%
19:00 -6°C° 0.1 mm 6 mps 757 mmHg 86%
20:00 -6°C° 0.1 mm 6 mps 757 mmHg 88%
21:00 -6°C° 0.1 mm 6 mps 757 mmHg 90%
22:00 -6°C° 0.1 mm 6 mps 757 mmHg 92%
23:00 -7°C° 0.2 mm 5 mps 757 mmHg 93%

Tomorrow, 17 January, Sunday

Time Temperature Precipitation Wind Pressure Humidity
00:00 -7°C° 0.2 mm 4 mps 757 mmHg 94%
01:00 -8°C° 0.2 mm 4 mps 757 mmHg 95%
02:00 -9°C° 0.1 mm 3 mps 757 mmHg 93%
03:00 -10°C° 0.1 mm 3 mps 757 mmHg 92%
04:00 -13°C° 0.1 mm 3 mps 757 mmHg 91%
05:00 -13°C° 0 mm 2 mps 757 mmHg 90%
06:00 -13°C° 0 mm 2 mps 758 mmHg 89%
07:00 -14°C° 0 mm 2 mps 758 mmHg 89%
08:00 -14°C° 0 mm 2 mps 758 mmHg 87%
09:00 -14°C° 0 mm 2 mps 759 mmHg 86%
10:00 -14°C° 0 mm 2 mps 759 mmHg 84%
11:00 -14°C° 0 mm 2 mps 759 mmHg 82%
12:00 -13°C° 0 mm 2 mps 759 mmHg 81%
13:00 -13°C° 0 mm 2 mps 760 mmHg 79%
14:00 -13°C° 0 mm 2 mps 760 mmHg 82%
15:00 -12°C° 0 mm 1 mps 760 mmHg 85%
16:00 -12°C° 0 mm 1 mps 760 mmHg 88%
17:00 -12°C° 0 mm 1 mps 760 mmHg 88%
18:00 -13°C° 0 mm 1 mps 761 mmHg 88%
19:00 -13°C° 0 mm 1 mps 761 mmHg 88%
20:00 -13°C° 0 mm 1 mps 761 mmHg 88%
21:00 -13°C° 0 mm 1 mps 761 mmHg 89%
22:00 -15°C° 0 mm 2 mps 761 mmHg 89%
23:00 -15°C° 0 mm 2 mps 761 mmHg 89%

Day after tomorrow, 18 January, Monday

Time Temperature Precipitation Wind Pressure Humidity
00:00 -15°C° 0 mm 2 mps 762 mmHg 89%
01:00 -15°C° 0 mm 2 mps 762 mmHg 89%
02:00 -15°C° 0 mm 2 mps 761 mmHg 88%
03:00 -15°C° 0 mm 2 mps 761 mmHg 88%
04:00 -15°C° 0 mm 2 mps 760 mmHg 87%
05:00 -14°C° 0 mm 2 mps 760 mmHg 87%
06:00 -14°C° 0 mm 2 mps 760 mmHg 87%
07:00 -13°C° 0 mm 2 mps 760 mmHg 87%
08:00 -12°C° 0 mm 2 mps 760 mmHg 87%
09:00 -10°C° 0 mm 2 mps 760 mmHg 86%
10:00 -9°C° 0 mm 2 mps 760 mmHg 86%
11:00 -8°C° 0 mm 2 mps 760 mmHg 87%
12:00 -7°C° 0 mm 2 mps 760 mmHg 88%
13:00 -6°C° 0 mm 2 mps 759 mmHg 90%
14:00 -6°C° 0.1 mm 2 mps 759 mmHg 92%
15:00 -5°C° 0.1 mm 2 mps 759 mmHg 94%
16:00 -4°C° 0.1 mm 2 mps 759 mmHg 97%
17:00 -3°C° 0.1 mm 2 mps 759 mmHg 97%
18:00 -2°C° 0.1 mm 3 mps 758 mmHg 97%
19:00 -1°C° 0.1 mm 3 mps 758 mmHg 97%
20:00 -2°C° 0.2 mm 4 mps 758 mmHg 97%
21:00 -1°C° 0.2 mm 4 mps 758 mmHg 97%
22:00 -1°C° 0.2 mm 4 mps 757 mmHg 97%
23:00 -1°C° 0.2 mm 5 mps 757 mmHg 97%

19 January, Tuesday

Time Temperature Precipitation Wind Pressure Humidity
00:00 -1°C° 0.2 mm 5 mps 757 mmHg 97%
01:00 -1°C° 0.2 mm 5 mps 757 mmHg 97%
02:00 -1°C° 0 mm 5 mps 757 mmHg 97%
03:00 -1°C° 0 mm 5 mps 756 mmHg 97%
04:00 -1°C° 0 mm 5 mps 756 mmHg 97%
05:00 -1°C° 0 mm 5 mps 756 mmHg 96%
06:00 -1°C° 0 mm 4 mps 756 mmHg 94%
07:00 -1°C° 0 mm 4 mps 755 mmHg 93%
08:00 -1°C° 0 mm 4 mps 755 mmHg 92%
09:00 -1°C° 0 mm 4 mps 755 mmHg 91%
10:00 -1°C° 0 mm 4 mps 754 mmHg 90%
11:00 -1°C° 0 mm 4 mps 753 mmHg 91%
12:00 -1°C° 0 mm 4 mps 753 mmHg 93%
13:00 -1°C° 0 mm 4 mps 752 mmHg 94%
14:00 -1°C° 0.5 mm 4 mps 751 mmHg 95%
15:00 -2°C° 0.5 mm 5 mps 751 mmHg 96%
16:00 -2°C° 0.5 mm 5 mps 750 mmHg 97%
17:00 -1°C° 0.8 mm 5 mps 750 mmHg 98%
18:00 -1°C° 0.8 mm 5 mps 749 mmHg 98%
19:00 0°C° 0.8 mm 5 mps 749 mmHg 98%
20:00 0°C° 0.9 mm 5 mps 749 mmHg 97%
21:00 +1°C° 0.9 mm 6 mps 748 mmHg 97%
22:00 +1°C° 0.9 mm 6 mps 748 mmHg 96%
23:00 +1°C° 0.5 mm 6 mps 748 mmHg 95%

20 January, Wednesday

Time Temperature Precipitation Wind Pressure Humidity
00:00 +1°C° 0.5 mm 6 mps 748 mmHg 95%
01:00 +1°C° 0.5 mm 6 mps 748 mmHg 94%
02:00 +1°C° 0.2 mm 6 mps 748 mmHg 94%
03:00 +1°C° 0.2 mm 6 mps 748 mmHg 94%
04:00 +1°C° 0.2 mm 5 mps 748 mmHg 94%
05:00 +1°C° 0 mm 5 mps 748 mmHg 92%
06:00 +1°C° 0 mm 5 mps 749 mmHg 90%
07:00 0°C° 0 mm 4 mps 749 mmHg 87%
08:00 +1°C° 0 mm 5 mps 749 mmHg 86%
09:00 +1°C° 0 mm 5 mps 749 mmHg 85%
10:00 +1°C° 0 mm 5 mps 749 mmHg 83%
11:00 +1°C° 0 mm 5 mps 748 mmHg 82%
12:00 +2°C° 0 mm 5 mps 748 mmHg 81%
13:00 +2°C° 0 mm 5 mps 748 mmHg 80%
14:00 +3°C° 0 mm 4 mps 748 mmHg 81%
15:00 +1°C° 0 mm 4 mps 748 mmHg 82%
16:00 +1°C° 0 mm 4 mps 748 mmHg 83%
17:00 +1°C° 0 mm 4 mps 748 mmHg 83%
18:00 0°C° 0 mm 4 mps 748 mmHg 82%
19:00 0°C° 0 mm 4 mps 748 mmHg 82%
20:00 0°C° 0 mm 4 mps 748 mmHg 80%
21:00 +1°C° 0 mm 3 mps 748 mmHg 78%
22:00 +1°C° 0 mm 3 mps 748 mmHg 77%
23:00 +1°C° 0 mm 3 mps 748 mmHg 76%

21 January, Thursday

Time Temperature Precipitation Wind Pressure Humidity
00:00 +1°C° 0 mm 3 mps 747 mmHg 75%
01:00 +1°C° 0 mm 3 mps 747 mmHg 74%
02:00 0°C° 0 mm 3 mps 747 mmHg 76%
03:00 -1°C° 0 mm 4 mps 746 mmHg 77%
04:00 -1°C° 0 mm 4 mps 746 mmHg 78%
05:00 0°C° 0 mm 3 mps 746 mmHg 81%
06:00 +1°C° 0 mm 2 mps 746 mmHg 84%
07:00 +1°C° 0 mm 1 mps 746 mmHg 87%
08:00 +1°C° 0 mm 2 mps 745 mmHg 87%
09:00 +1°C° 0 mm 2 mps 745 mmHg 88%
10:00 +2°C° 0 mm 2 mps 745 mmHg 88%
11:00 +2°C° 0 mm 2 mps 744 mmHg 89%
12:00 +2°C° 0 mm 2 mps 744 mmHg 89%
13:00 +4°C° 0 mm 1 mps 744 mmHg 90%
14:00 +3°C° 0 mm 2 mps 744 mmHg 90%
15:00 +2°C° 0 mm 2 mps 744 mmHg 89%
16:00 +1°C° 0 mm 3 mps 744 mmHg 89%
17:00 +1°C° 0 mm 3 mps 744 mmHg 89%
18:00 0°C° 0 mm 4 mps 744 mmHg 89%
19:00 0°C° 0 mm 4 mps 745 mmHg 88%
20:00 0°C° 0 mm 4 mps 745 mmHg 88%
21:00 0°C° 0 mm 4 mps 745 mmHg 87%
22:00 -1°C° 0 mm 4 mps 746 mmHg 87%
23:00 -1°C° 0 mm 5 mps 746 mmHg 86%
Show more

We Need Your Consent

Meteoprog and our Service Providers may store and access personal data such as cookies, device identifiers or other similar technologies on your device and process such data to personalise content and ads, as well as provide social media features and to analyse the traffic.

  • Store and/or access information on your device

    Cookies, device identifiers or other information can be stored or accessed on your device for the purposes indicated above.

  • Personalised ads and content, ad and content measurement, audience insights, and products development

    Ads and content can be personalised based on a profile. More data can be added to better personalise ads and content. Ad and content performance can be measured. Insights about the audience who saw the ads and content can be derived. Such data can be used to develop or improve user’s experience, systems and software.

By clicking ‘I Agree’ you will allow the use of indicated cookies, device identifiers, web beacons or other similar technologies. Your settings can be changed in the browser on your device.

For certain purposes, legitimate interests may be relied on, rather than consent. You can read more about this in our Privacy and Cookie Policy.